Tracking 31027 objects as of 19-Jul-2025
HD Live streaming from Space Station
objects crossing your sky now

FENGYUN 1C DEB

Track FENGYUN 1C DEB now!
10-day predictions


NORAD ID: 31989
Int'l Code: 1999-025CPS
Perigee: 839.9 km
Apogee: 1,008.4 km
Inclination: 99.2 °
Period: 103.4 minutes
Semi major axis: 7295 km
RCS: 0.0027 m2 (small)
Launch date: May 10, 1999
Source: People's Republic of China (PRC)
Launch site: Taiyaun Space Center, China (TSC)

Note: This is SATELLITE DEBRIS
Your satellite tracking list
KL-BETA B
Track 1 satellite(s)




NASA's NSSDC Master Catalog

Two Line Element Set (TLE):
1 31989U 99025CPS 25199.43333483  .00000285  00000-0  23977-3 0  9998
2 31989  99.2321 260.9997 0115492 339.5339  32.8498 13.93315613916664
Source of the keplerian elements: AFSPC